Regional Weather Roundup
Issued by NWS

Home | Current Version | Previous Version | Graphics & Text | Print | Product List | Glossary Off
Versions: 1 2 3 4 5 6 7 8 9 10 11 12 13 14 15 16 17 18 19 20 21 22 23 24 25 26 27 28 29 30 31 32 33 34 35 36 37 38 39 40 41 42 43 44 45 46 47 48 49 50

000
ASUS43 KTOP 061908
RWRKS

WEATHER ROUNDUP FOR KANSAS
NATIONAL WEATHER SERVICE GOODLAND KS
200 PM CDT MON JUL 06 2015

NOTE:  "FAIR" INDICATES FEW OR NO CLOUDS BELOW 12,000 FEET WITH NO
SIGNIFICANT WEATHER AND/OR OBSTRUCTIONS TO VISIBILITY.

KSZ001>006-013>018-027>032-041>047-062000-
NORTHWEST KANSAS

CITY           SKY/WX    TMP DP  RH WIND       PRES   REMARKS
GOODLAND       CLOUDY    68  59  73 N20G29    30.16R
HAYS           CLOUDY    73  63  68 N21G29    29.98R
HILL CITY      CLOUDY    73  63  70 N21G29    30.04R
RUSSELL        CLOUDY    77  74  90 N18       29.94R
$$

KSZ061>065-074>080-084>089-062000-
SOUTHWEST KANSAS

CITY           SKY/WX    TMP DP  RH WIND       PRES   REMARKS
DODGE CITY     CLOUDY    79  66  64 N26G35    29.98S
ELKHART          N/A     82  59  45 N20         N/A
GARDEN CITY    CLOUDY    74  64  71 N20G29    30.03R
GREAT BEND     CLOUDY    75  70  83 N17       29.93R
LIBERAL        PTSUNNY   84  66  54 N24       30.02S
PRATT          PTSUNNY   91  64  40 W6        29.90S
$$

KSZ066>073-081>083-090>101-062000-
SOUTHEAST KANSAS

CITY           SKY/WX    TMP DP  RH WIND       PRES   REMARKS
CHANUTE        PTSUNNY   89  75  63 S15       29.91F HX  99
COFFEYVILLE    PTSUNNY   90  74  59 S18G26    29.92F HX  99
HUTCHINSON     CLOUDY    93  68  43 S15       29.86F HX  97
MEDICINE LODGE   N/A     95  68  41 S14G23    29.85F HX  99
NEWTON         PTSUNNY   93  68  43 S20       29.89F HX  97
PARSONS        PTSUNNY   88  76  67 S13G21    29.93F HX  99
WICHITA INTL   MOSUNNY   95  70  44 S22       29.85F HX 101
WICHITA JABRA  MOSUNNY   93  70  46 S20G28    29.87F HX  99
WICHITA MCCONL MOSUNNY   96  70  43 S21G31    29.86F HX 102
WINFIELD       PTSUNNY   93  72  50 S16G26    29.89F HX 101
$$

KSZ007>012-019>026-033>040-048>060-102>105-062000-
NORTHEAST KANSAS

CITY           SKY/WX    TMP DP  RH WIND       PRES   REMARKS
CONCORDIA      LGT RAIN  74  72  93 CALM      29.93R FOG
EMPORIA        MOSUNNY   92  72  51 S16       29.87F HX  99
LAWRENCE       MOSUNNY   91  76  61 S12G24    29.85F HX 103
MANHATTAN      PTSUNNY   93  71  48 SW8       29.83F HX 100
MARYSVILLE     RAIN      72  72 100 N5        29.89F
OLATHE IND     MOSUNNY   89  75  63 S15       29.89F HX  99
OLATHE EXE     MOSUNNY   86  75  69 S16G24    29.88F HX  95
SALINA         CLOUDY    77  72  84 NW28G38   29.86S THUNDER
TOPEKA BILLARD MOSUNNY   92  75  57 S13G18    29.85F HX 103
TOPEKA FORBES  MOSUNNY   91  75  59 S12       29.85F HX 101
$$


USA.gov is the U.S. government's official web portal to all federal, state and local government web resources and services.